This is the latest recevied weather packets stored in our database for station/object WB0OCV. If no packets are shown the sender has not sent any weather packets the latest 10 day(s).
| Time | Temp. | Humidity | Pressure | Rain* | Wind** | Luminosity | Snow |
|---|---|---|---|---|---|---|---|
| 1777500405 | 8.89° C | 89% | 1014.9 hPa | 0 mm | - | 52 W/m² | - |
| 1777500101 | 8.89° C | 88% | 1015 hPa | 0 mm | - | 71 W/m² | - |
| 1777499798 | 8.89° C | 88% | 1015.1 hPa | 0 mm | - | 75 W/m² | - |
| 1777499494 | 8.89° C | 87% | 1015.2 hPa | 0 mm | - | 73 W/m² | - |
| 1777499193 | 8.89° C | 87% | 1015.2 hPa | 0 mm | - | 115 W/m² | - |
| 1777498889 | 8.89° C | 86% | 1015.1 hPa | 0 mm | - | 122 W/m² | - |
| 1777498586 | 9.44° C | 86% | 1015.1 hPa | 0 mm | - | 130 W/m² | - |
| 1777498282 | 9.44° C | 85% | 1015.1 hPa | 0 mm | - | 178 W/m² | - |
| 1777497981 | 9.44° C | 86% | 1015.3 hPa | 0 mm | - | 168 W/m² | - |
| 1777497676 | 9.44° C | 86% | 1015.4 hPa | 0 mm | - | 166 W/m² | - |
| 1777497373 | 9.44° C | 86% | 1015.1 hPa | 0 mm | - | 183 W/m² | - |
| 1777497069 | 8.89° C | 87% | 1014.9 hPa | 0 mm | - | 178 W/m² | - |
| 1777496765 | 8.89° C | 86% | 1014.9 hPa | 0 mm | - | 206 W/m² | - |
| 1777496462 | 8.89° C | 87% | 1014.8 hPa | 0 mm | - | 209 W/m² | - |
| 1777496159 | 9.44° C | 86% | 1014.8 hPa | 0 mm | - | 201 W/m² | - |
| 1777495855 | 9.44° C | 86% | 1014.9 hPa | 0 mm | - | 170 W/m² | - |
| 1777495551 | 9.44° C | 85% | 1015 hPa | 0 mm | - | 183 W/m² | - |
| 1777495247 | 8.89° C | 86% | 1015 hPa | 0 mm | - | 174 W/m² | - |
| 1777494945 | 8.89° C | 86% | 1015.1 hPa | 0 mm | - | 159 W/m² | - |
| 1777494642 | 9.44° C | 85% | 1015.4 hPa | 0 mm | - | 170 W/m² | - |
| 1777494339 | 9.44° C | 85% | 1015.3 hPa | 0 mm | - | 179 W/m² | - |
| 1777494035 | 10° C | 84% | 1015.8 hPa | 0 mm | - | 152 W/m² | - |
| 1777493733 | 9.44° C | 85% | 1015.7 hPa | 0 mm | - | 161 W/m² | - |
| 1777493431 | 9.44° C | 85% | 1015.9 hPa | 0 mm | - | 129 W/m² | - |
| 1777493126 | 9.44° C | 85% | 1015.9 hPa | 0 mm | - | 121 W/m² | - |
* Rain latest hour (hover to see other rain measurements)
** Current wind speed in m/s (hover to see current wind gust speed)